Zurück zum Katalog

KUIPER-00258

AktivKommunikationVLEO
NORAD 69763·PAYLOAD·🇺🇸 United States

Gestartet Jul 2, 2026 von Cape Canaveral Space Force Station

Loading…

Nächste Überflüge (nächste 24 Stunden)

TLE

AktuellSource: CelesTrak SupGP

Epoche: Sep 14, 2026, 20:58 UTC

1 69763C 26151A   26257.87402778 -.01087500  00000+0 -74491-1 0  2576
2 69763  51.8847 245.3761 0010682  34.2232 204.8501 15.06590992    14

Verfolge KUIPER-00258 in Echtzeit mit AllMySat

Download on the App Store